EW0121 Weather Reports


time (UTC)temp
C
wind
direction
speed
KPH
gust
KPH
rain 1hr
cm
rain 24hr
cm
rain mn
cm
humidity
%
barometer
mb
20260508014522 8 68 1.6 16.1 0.00 0.00 0.00 80 1016.1
20260508013022 8 60 4.8 12.9 0.00 0.00 0.00 80 1016.1
20260508011531 8 117 1.6 8.0 0.00 0.00 0.00 79 1016.1
20260508010028 8 136 1.6 8.0 0.00 0.00 0.00 78 1016.3
20260508004534 8 114 1.6 12.9 0.00 0.00 0.00 78 1016.3
20260508003018 8 37 0.0 4.8 0.00 0.00 0.00 77 1016.3
20260508001531 8 86 0.0 4.8 0.00 0.00 0.00 76 1016.5
20260508000025 8 78 3.2 4.8 0.00 0.00 0.00 76 1016.6
20260507234528 9 86 0.0 3.2 0.00 0.00 0.00 74 1016.7
20260507233017 9 120 1.6 6.4 0.00 0.00 0.00 74 1016.6
20260507231523 8 81 0.0 6.4 0.00 0.00 0.00 73 1016.6
20260507230026 9 98 0.0 11.3 0.00 0.00 0.00 72 1016.7
20260507224527 9 72 1.6 6.4 0.00 0.00 0.00 71 1016.8
20260507223026 8 84 1.6 4.8 0.00 0.00 0.00 71 1016.8
20260507221518 8 56 0.0 4.8 0.00 0.00 0.00 71 1016.8
20260507220024 9 73 0.0 3.2 0.00 0.00 0.00 70 1016.9
20260507214527 9 90 0.0 3.2 0.00 0.00 0.00 69 1017.0
20260507213029 10 81 0.0 3.2 0.00 0.00 0.00 68 1016.9
20260507211526 10 54 0.0 4.8 0.00 0.00 0.00 66 1016.9
20260507210025 10 97 0.0 3.2 0.00 0.00 0.00 66 1016.5
20260507204523 10 44 1.6 4.8 0.00 0.00 0.00 69 1016.5
20260507203039 10 113 0.0 3.2 0.00 0.00 0.00 70 1016.4
20260507201530 10 87 0.0 3.2 0.00 0.00 0.00 70 1016.4
20260507200028 10 67 0.0 1.6 0.00 0.00 0.00 69 1016.2
20260507194527 11 67 0.0 1.6 0.00 0.00 0.00 68 1016.0
20260507193003 11 69 0.0 3.2 0.00 0.00 0.00 64 1015.9
20260507191515 12 96 0.0 3.2 0.00 0.00 0.00 61 1015.8
20260507190014 12 74 0.0 3.2 0.00 0.00 0.00 60 1015.7
20260507184510 13 109 0.0 1.6 0.00 0.00 0.00 59 1015.6
20260507183013 13 111 0.0 1.6 0.00 0.00 0.00 60 1015.6
20260507181510 13 230 0.0 1.6 0.00 0.00 0.00 60 1015.6
20260507180017 13 230 0.0 1.6 0.00 0.00 0.00 57 1015.5
20260507174523 13 219 0.0 3.2 0.00 0.00 0.00 56 1015.5
20260507173034 14 142 0.0 4.8 0.00 0.00 0.00 56 1015.6
20260507171522 14 156 0.0 3.2 0.00 0.00 0.00 55 1015.5
20260507170007 14 111 0.0 4.8 0.00 0.00 0.00 55 1015.4
20260507164518 14 240 1.6 9.7 0.00 0.00 0.00 57 1015.4
20260507163016 15 195 1.6 9.7 0.00 0.00 0.00 57 1015.6
20260507161516 15 20 1.6 9.7 0.00 0.00 0.00 56 1015.6
20260507160016 14 113 0.0 6.4 0.00 0.00 0.00 57 1015.8
20260507154510 14 33 1.6 6.4 0.00 0.00 0.00 57 1015.7
20260507153018 15 75 0.0 9.7 0.00 0.00 0.00 57 1015.7
20260507151518 15 168 1.6 6.4 0.00 0.00 0.00 59 1015.7
20260507150033 15 43 0.0 6.4 0.00 0.00 0.00 55 1015.7
20260507144522 16 114 1.6 12.9 0.00 0.00 0.00 52 1015.8
20260507143016 17 120 1.6 9.7 0.00 0.00 0.00 50 1015.9
20260507141521 16 153 1.6 12.9 0.00 0.00 0.00 50 1016.0
20260507140021 17 185 3.2 11.3 0.00 0.00 0.00 47 1015.9
20260507134520 17 76 1.6 12.9 0.00 0.00 0.00 49 1015.9
20260507133021 16 360 1.6 11.3 0.00 0.00 0.00 50 1015.9
20260507131514 16 125 1.6 9.7 0.00 0.00 0.00 49 1016.1
20260507130012 16 266 0.0 8.0 0.00 0.00 0.00 49 1016.1
20260507124506 15 90 1.6 6.4 0.00 0.00 0.00 48 1016.2
20260507123014 16 112 3.2 12.9 0.00 0.00 0.00 45 1016.2
20260507121517 16 135 3.2 11.3 0.00 0.00 0.00 43 1016.1
20260507120018 17 55 3.2 12.9 0.00 0.00 0.00 43 1016.1
20260507114517 16 5 3.2 9.7 0.00 0.00 0.00 44 1016.1
20260507113011 18 51 3.2 12.9 0.00 0.00 0.00 45 1016.1
20260507111514 17 234 1.6 4.8 0.00 0.00 0.00 46 1016.2
20260507110018 17 161 3.2 11.3 0.00 0.00 0.00 48 1016.5
20260507104520 16 119 3.2 8.0 0.00 0.00 0.00 51 1016.5
20260507103021 15 127 3.2 9.7 0.00 0.00 0.00 53 1016.7
20260507101532 16 141 3.2 8.0 0.00 0.00 0.00 56 1016.7
20260507100021 14 140 4.8 12.9 0.00 0.00 0.00 57 1016.7
20260507094523 15 177 4.8 16.1 0.00 0.00 0.00 57 1016.7
20260507093022 13 157 1.6 12.9 0.00 0.00 0.00 63 1016.7
20260507091523 13 83 3.2 12.9 0.00 0.00 0.00 70 1016.7
20260507090021 12 133 4.8 12.9 0.00 0.00 0.00 73 1016.8
20260507084520 11 120 3.2 4.8 0.00 0.00 0.00 76 1016.9
20260507083020 11 69 1.6 8.0 0.00 0.00 0.00 77 1017.0
20260507081526 10 67 0.0 6.4 0.00 0.00 0.00 79 1016.8
20260507080022 9 292 0.0 3.2 0.00 0.00 0.00 80 1017.0
20260507074523 8 234 0.0 4.8 0.00 0.00 0.00 81 1016.9
20260507073024 7 234 1.6 4.8 0.00 0.00 0.00 82 1016.8
20260507071525 7 40 0.0 4.8 0.00 0.00 0.00 83 1016.6
20260507070014 7 213 0.0 6.4 0.00 0.00 0.00 84 1016.5
20260507064514 6 74 1.6 9.7 0.00 0.00 0.00 84 1016.4
20260507063017 6 147 1.6 9.7 0.00 0.00 0.00 84 1016.3
20260507061523 6 45 1.6 9.7 0.00 0.00 0.00 85 1016.3
20260507060027 6 77 0.0 6.4 0.00 0.00 0.00 85 1016.3
20260507054511 5 107 1.6 6.4 0.00 0.00 0.00 85 1016.2
20260507053014 5 103 3.2 9.7 0.00 0.00 0.00 86 1016.2
20260507051522 5 92 1.6 9.7 0.00 0.00 0.00 85 1016.2
20260507050029 5 134 0.0 9.7 0.00 0.00 0.00 86 1016.1
20260507044526 5 122 1.6 9.7 0.00 0.00 0.00 85 1016.1
20260507043010 5 180 1.6 6.4 0.00 0.00 0.00 85 1016.1
20260507041518 5 83 1.6 9.7 0.00 0.00 0.00 85 1016.1
20260507040023 6 55 1.6 12.9 0.00 0.00 0.00 85 1016.1
20260507034525 6 132 1.6 11.3 0.00 0.00 0.00 85 1016.0
20260507033041 6 120 1.6 6.4 0.00 0.00 0.00 84 1015.9
20260507031521 6 103 1.6 9.7 0.00 0.00 0.00 85 1015.9
20260507030022 5 85 3.2 9.7 0.00 0.00 0.00 85 1015.9
20260507024525 5 78 1.6 11.3 0.00 0.00 0.00 84 1015.9
20260507023026 5 69 1.6 6.4 0.00 0.00 0.00 84 1015.9
20260507021526 5 80 3.2 6.4 0.00 0.00 0.00 84 1015.9
20260507020022 5 211 1.6 6.4 0.00 0.00 0.00 84 1016.0